Date,TemperatureHighF,TemperatureAvgF,TemperatureLowF,DewpointHighF,DewpointAvgF,DewpointLowF,HumidityHigh,HumidityAvg,HumidityLow,PressureMaxIn,PressureMinIn,WindSpeedMaxMPH,WindSpeedAvgMPH,GustSpeedMaxMPH,PrecipitationSumIn
2013-1-1,44,35,30,43,35,30,99,98,87,30.70,30.56,4,0,8,0.01
2013-1-2,32,29,28,32,29,27,99,99,99,30.56,30.39,2,0,3,0.01
2013-1-3,49,32,24,38,30,24,99,93,54,30.40,30.29,3,0,8,0.70
2013-1-4,49,41,37,49,41,37,99,99,95,30.48,30.34,5,1,12,0.05
2013-1-5,44,41,39,44,41,38,99,99,99,30.39,30.30,2,0,6,0.11
2013-1-6,44,41,39,44,41,39,99,99,95,30.36,30.15,4,1,14,0.11
2013-1-7,58,45,41,52,44,40,99,97,80,30.35,29.96,5,1,14,0.06
2013-1-8,50,48,42,50,47,42,99,99,99,30.35,29.90,8,2,20,3.41
2013-1-9,49,46,43,48,46,43,99,99,99,29.92,29.90,4,2,17,0.61
2013-1-10,37,33,29,37,33,29,99,99,99,30.33,30.22,1,0,4,0.09
2013-1-11,46,33,26,32,28,25,99,85,49,30.53,30.32,4,0,8,0.05
2013-1-12,43,30,25,34,28,25,99,94,66,30.64,30.52,4,0,8,0.02
2013-1-13,38,31,27,34,30,26,99,95,80,30.69,30.63,2,0,4,0.00
2013-1-14,45,31,26,35,29,26,99,92,65,30.77,30.66,3,0,8,0.00
2013-1-15,37,32,27,37,32,26,99,99,99,30.91,30.76,2,0,2,0.02
2013-1-16,48,33,27,43,32,27,99,96,74,30.88,30.72,3,0,6,0.00
2013-1-17,36,32,28,36,32,28,99,99,99,30.73,30.49,2,0,3,0.02
2013-1-18,36,34,29,36,33,29,99,99,99,30.55,29.90,3,0,4,0.00
2013-1-19,40,36,35,39,36,34,99,99,95,30.59,29.94,2,0,4,0.00
2013-1-20,50,37,30,46,37,30,99,98,84,30.60,29.97,2,0,5,0.00
2013-1-21,37,35,32,37,35,32,99,99,99,30.48,30.33,2,0,5,0.00
2013-1-22,37,33,30,37,33,29,99,99,99,30.34,30.11,2,0,4,0.00
2013-1-23,44,40,34,44,40,34,99,99,99,30.33,30.04,3,0,11,0.48
2013-1-24,44,40,36,43,40,36,99,98,92,30.40,30.23,2,0,8,0.21
2013-1-25,58,44,39,51,42,38,99,93,64,30.26,30.10,4,1,10,0.01
2013-1-26,45,40,36,43,39,36,99,98,93,30.23,30.07,4,1,14,0.33
2013-1-27,43,38,35,41,38,35,99,98,92,30.25,30.17,5,0,12,0.00
2013-1-28,41,37,32,41,37,32,99,99,99,30.29,30.20,2,0,3,0.12
2013-1-29,52,42,38,52,41,37,99,98,89,30.53,30.28,2,0,4,0.12
2013-1-30,52,44,42,52,44,42,99,99,95,30.58,30.51,2,0,3,0.01
2013-1-31,56,47,43,50,46,43,99,96,78,30.60,30.46,6,1,18,0.01
2013-2-1,52,44,38,47,43,37,99,95,79,30.62,30.53,3,0,7,0.00
2013-2-2,51,42,38,47,41,37,99,97,83,30.59,30.46,3,0,8,0.02
2013-2-3,50,42,38,47,42,38,99,98,90,30.50,30.40,3,0,8,0.00
2013-2-4,53,45,42,46,43,42,99,94,75,30.41,30.07,4,0,17,0.02
2013-2-5,51,44,42,48,43,42,99,98,89,30.12,30.01,5,2,17,1.30
2013-2-6,46,43,41,46,43,41,99,99,96,30.23,29.97,6,1,15,0.81
2013-2-7,58,41,32,43,38,31,99,90,54,30.39,29.98,6,1,13,0.27
2013-2-8,53,37,29,50,36,28,99,96,73,30.51,30.39,2,0,5,0.05
2013-2-9,49,41,35,44,40,35,99,96,81,30.54,30.45,4,0,7,0.09
2013-2-10,44,41,40,43,40,40,99,99,99,30.58,30.53,2,0,3,0.05
2013-2-11,47,42,36,45,41,36,99,97,85,30.56,30.52,3,0,8,0.02
2013-2-12,47,46,46,46,46,45,99,98,97,30.49,30.47,6,3,15,0.00
2013-2-13,47,45,43,47,44,42,99,98,93,30.70,30.51,4,0,8,0.00
2013-2-14,49,44,41,46,44,41,99,98,89,30.76,30.68,2,0,8,0.00
2013-2-15,42,39,36,42,39,36,99,99,98,30.44,30.38,1,0,2,0.00
2013-2-16,58,45,36,51,43,36,99,93,68,30.39,30.32,4,1,11,0.00
2013-2-17,49,40,34,43,39,34,99,94,74,30.45,30.31,4,0,7,0.00
2013-2-18,50,40,36,42,38,36,99,94,72,30.30,29.97,4,0,8,0.09
2013-2-19,54,40,32,45,38,32,99,91,61,30.22,29.94,8,1,14,0.05
2013-2-20,46,39,34,43,38,34,99,97,82,30.24,30.18,3,0,11,0.17
2013-2-21,48,40,36,42,39,36,99,96,78,30.25,30.19,6,1,17,0.02
2013-2-22,53,42,35,48,40,34,99,93,67,30.22,29.83,8,3,18,1.56
2013-2-23,54,40,30,45,37,29,99,90,60,30.56,30.09,4,1,9,1.03
2013-2-24,44,41,37,44,40,36,99,98,88,30.56,30.13,5,1,16,0.59
2013-2-25,56,43,30,41,36,28,99,82,39,30.51,30.05,7,2,19,0.48
2013-2-26,47,37,30,41,35,29,99,93,77,30.53,30.44,4,1,14,0.00
2013-2-28,51,50,50,50,50,49,99,99,96,30.51,30.43,6,2,18,0.72
2013-3-1,58,52,50,53,51,49,99,95,84,30.53,30.45,8,3,21,0.08
2013-3-2,57,49,37,52,47,37,99,93,77,30.47,30.24,8,2,21,0.40
2013-3-3,56,39,33,45,37,32,99,94,52,30.51,30.40,3,0,8,0.02
2013-3-4,54,40,31,43,36,31,99,88,47,30.51,29.69,8,1,13,0.02
2013-3-5,43,41,40,41,41,40,99,98,93,30.00,29.94,1,0,5,0.38
2013-3-6,44,42,39,44,41,39,99,99,97,29.93,29.78,4,1,8,0.18
2013-3-7,55,42,37,45,40,37,99,93,68,30.30,30.25,2,0,6,0.12
2013-3-8,57,42,33,48,39,33,99,89,59,30.45,30.29,5,1,11,0.00
2013-3-9,59,42,31,47,39,31,99,89,62,30.69,30.45,4,1,7,0.02
2013-3-10,42,42,42,42,42,42,99,99,99,30.64,30.63,0,0,0,0.01
2013-3-11,52,44,42,48,44,42,99,97,80,30.65,30.34,2,0,6,0.11
2013-3-12,57,49,45,52,49,45,99,98,83,30.34,30.24,6,3,23,0.39
2013-3-13,60,52,49,53,50,49,99,95,76,30.37,30.27,8,2,16,0.00
2013-3-14,48,47,47,47,47,47,99,99,99,30.33,30.30,2,1,11,0.06
2013-3-15,64,53,46,52,49,45,99,88,62,30.40,30.33,6,2,16,0.02
2013-3-17,53,43,36,41,37,35,97,81,55,30.38,30.35,5,2,11,0.00
2013-3-18,39,36,34,36,35,34,99,96,89,30.44,30.30,4,1,15,0.00
2013-3-19,42,36,33,42,35,33,99,99,99,30.44,29.79,1,0,3,1.30
2013-3-20,53,46,36,49,44,33,99,94,71,30.21,29.55,9,2,24,1.26
2013-3-21,50,38,31,41,35,30,99,92,64,30.41,30.21,8,1,14,0.05
2013-3-22,51,37,30,42,34,29,99,90,60,30.58,30.41,4,1,9,0.02
2013-3-23,54,40,32,41,35,32,99,86,50,30.60,30.51,4,0,9,0.00
2013-3-24,59,41,31,42,36,31,99,84,39,30.51,30.33,4,1,7,0.00
2013-3-25,63,43,32,43,35,31,99,80,33,30.34,30.18,4,1,11,0.00
2013-3-26,61,49,41,45,42,38,97,78,55,30.23,30.17,3,0,6,0.00
2013-3-27,60,48,43,50,45,42,99,90,61,30.20,30.15,4,0,7,0.00
2013-3-28,63,49,42,57,47,42,99,95,73,30.30,30.20,4,1,7,0.00
2013-3-30,69,59,44,52,47,43,99,68,46,30.45,30.29,6,2,11,0.00
2013-3-31,57,46,41,48,43,40,98,92,72,30.29,30.15,4,0,8,0.00
2013-4-1,70,53,45,53,48,44,99,85,47,30.35,30.18,4,1,10,0.00
2013-4-2,60,48,42,50,46,41,99,91,69,30.40,30.35,4,1,8,0.00
2013-4-3,64,50,42,51,46,42,99,88,57,30.40,30.30,5,1,8,0.00
2013-4-4,53,52,51,53,52,51,99,99,99,29.89,29.83,7,3,18,0.91
2013-4-5,59,51,47,53,50,47,99,95,74,30.05,29.89,9,2,21,1.11
2013-4-6,60,49,44,49,46,42,99,90,60,30.10,29.86,6,2,21,0.47
2013-4-7,49,44,39,47,43,39,99,97,91,30.09,29.74,4,0,11,1.02
2013-4-8,60,47,38,52,45,38,99,93,68,30.47,30.09,4,0,8,0.05
2013-4-9,60,48,41,47,44,41,99,85,59,30.54,30.35,5,1,13,0.00
2013-4-10,67,53,44,56,48,42,99,85,57,30.46,30.10,8,2,19,0.51
2013-4-11,44,41,40,43,41,40,99,99,99,30.47,30.45,1,0,2,0.00
2013-4-12,44,43,41,44,42,41,99,99,99,29.56,29.50,4,1,8,0.24
2013-4-13,62,44,32,46,39,31,99,86,48,29.82,29.56,5,1,12,0.05
2013-4-14,58,44,34,47,39,34,99,85,51,29.83,29.75,6,1,13,0.00
2013-4-15,62,46,33,48,38,32,99,80,50,30.01,29.77,6,1,12,0.00
2013-4-16,64,47,33,48,36,24,99,73,26,30.23,30.01,8,2,17,0.00
2013-4-17,67,47,36,47,39,34,96,77,40,30.28,30.22,4,1,10,0.00
2013-4-18,50,50,49,49,48,47,97,95,92,30.46,30.40,5,3,14,0.00
2013-4-19,50,49,47,50,49,47,99,99,99,30.39,30.38,1,0,6,0.39
2013-4-20,57,47,43,52,47,43,99,98,82,30.48,30.39,2,0,5,0.01
2013-4-21,55,46,38,51,45,38,99,94,76,30.56,30.43,4,1,10,0.05
2013-4-22,65,48,34,48,33,17,99,66,20,30.74,30.57,6,2,14,0.02
2013-4-23,44,36,32,39,34,32,99,93,81,30.64,30.50,1,0,2,0.00
2013-4-24,43,41,39,39,38,37,95,91,86,30.52,30.51,1,0,2,0.00
2013-4-25,73,57,48,48,46,43,92,71,37,30.36,30.28,2,0,4,0.00
2013-4-26,73,55,42,54,48,42,99,81,41,30.47,30.36,4,1,10,0.00
2013-4-27,62,54,47,51,48,45,99,82,64,30.41,30.34,7,2,19,0.00
2013-4-28,62,52,46,54,48,42,99,87,62,30.42,30.12,6,2,18,0.05
2013-4-29,68,52,42,48,42,35,99,73,35,30.36,30.10,8,1,13,0.00
2013-4-30,59,46,33,44,38,33,99,77,47,30.66,30.36,5,1,11,0.00
2013-5-1,68,50,34,44,36,23,99,68,22,30.79,30.66,6,1,11,0.00
2013-5-2,69,48,38,43,39,36,97,74,37,30.76,30.63,5,1,11,0.00
2013-5-4,84,72,57,43,36,30,57,33,19,30.30,30.21,4,1,11,0.00
2013-5-5,91,69,52,50,44,27,76,49,15,30.21,29.98,5,1,14,0.00
2013-5-6,91,70,50,56,49,44,91,56,25,30.07,29.96,4,1,8,0.00
2013-5-7,80,58,50,57,52,50,99,84,44,30.20,30.03,4,1,12,0.00
2013-5-8,73,58,50,58,53,50,99,84,57,30.36,30.20,4,1,8,0.00
2013-5-9,63,52,47,57,51,47,99,97,79,30.44,30.35,4,0,7,0.00
2013-5-11,61,60,59,56,54,53,86,83,80,30.25,30.23,1,0,3,0.00
2013-5-12,66,59,56,61,58,54,99,96,79,30.27,30.21,3,1,13,0.00
2013-5-13,67,57,46,57,52,41,96,84,52,30.39,30.15,10,2,22,0.07
2013-5-14,69,54,42,50,46,42,99,78,47,30.43,30.33,6,1,11,0.00
2013-5-15,46,44,43,45,44,43,99,98,96,30.34,30.31,1,0,2,0.00
2013-5-16,76,64,54,55,54,52,98,74,48,30.16,30.08,4,1,10,0.01
2013-5-17,69,56,51,54,52,48,99,85,51,30.19,30.15,4,1,10,0.02
2013-5-18,67,59,52,53,50,47,95,75,53,30.49,30.28,4,1,11,0.00
2013-5-19,70,56,47,56,52,46,99,85,59,30.61,30.49,6,1,8,0.00
2013-5-20,72,52,44,55,49,44,99,92,62,30.57,30.36,4,0,8,0.00
2013-5-22,50,47,45,48,46,44,99,98,95,30.15,30.13,0,0,4,0.27
2013-5-23,61,48,43,50,46,43,99,93,65,30.20,30.13,3,0,11,0.12
2013-5-24,70,55,44,53,48,44,99,82,44,30.25,30.18,4,0,9,0.02
2013-5-25,67,55,47,53,50,47,99,84,54,30.25,30.19,4,1,11,0.09
2013-5-26,70,57,49,58,53,49,99,88,59,30.20,30.16,4,1,13,0.17
2013-5-28,68,59,51,54,51,48,99,76,54,30.08,29.97,8,2,17,0.00
2013-5-29,65,54,49,56,51,48,99,91,69,30.04,29.91,4,0,11,0.19
2013-6-1,75,66,56,55,52,49,81,62,45,30.39,30.27,6,2,11,0.00
2013-6-2,73,58,52,59,53,50,99,87,59,30.31,30.26,4,0,8,0.07
2013-6-3,55,53,51,53,52,51,99,98,94,30.32,30.31,1,0,2,0.00
2013-6-4,51,51,50,51,50,50,99,99,99,30.31,30.31,0,0,1,0.00
2013-6-5,58,57,56,56,56,55,96,94,93,30.26,30.25,0,0,1,0.00
2013-6-6,82,64,50,60,55,50,99,76,39,30.27,30.21,4,1,10,0.00
2013-6-7,69,60,53,57,54,52,97,82,61,30.36,30.23,4,1,9,0.00
2013-6-8,57,57,56,55,54,54,93,93,92,30.36,30.36,0,0,1,0.00
2013-6-9,64,56,50,57,52,49,97,86,73,30.33,30.25,5,1,11,0.00
2013-6-10,79,61,49,53,50,48,98,72,38,30.25,30.08,4,1,8,0.00
2013-6-14,71,62,50,56,53,50,98,74,56,30.41,30.27,4,1,6,0.00
2013-6-15,51,49,47,51,48,47,99,99,98,30.27,30.22,0,0,3,0.00
2013-6-18,79,72,56,52,48,44,78,47,33,30.14,30.09,5,2,12,0.00
2013-6-19,63,60,54,58,57,52,98,89,81,30.21,30.18,1,0,4,0.00
2013-6-20,66,57,53,57,54,51,99,91,72,30.30,30.15,3,1,11,0.04
2013-6-21,53,52,52,52,52,52,99,99,98,30.35,30.34,1,0,2,0.01
2013-6-22,84,65,48,61,55,48,99,74,43,30.35,30.08,4,1,11,0.00
2013-6-23,77,68,58,66,64,55,99,88,63,30.08,29.82,4,0,6,0.38
2013-6-24,79,64,56,61,58,55,99,84,52,29.90,29.78,6,1,18,0.05
2013-6-25,59,56,55,58,56,55,99,99,99,30.05,29.99,2,1,10,0.47
2013-6-26,76,62,55,66,59,55,99,89,65,30.28,30.04,4,1,16,0.15
2013-6-27,74,63,57,69,62,57,99,96,77,30.42,30.26,2,0,7,0.30
2013-6-28,94,73,57,70,63,56,99,76,36,30.41,30.24,4,1,13,0.00
2013-7-1,65,64,63,62,62,62,97,94,92,30.23,30.21,0,0,2,0.00
2013-7-2,88,70,57,67,62,57,99,79,47,30.32,30.24,5,1,9,0.00
2013-7-3,81,67,57,62,56,50,94,71,39,30.37,30.26,5,1,11,0.00
2013-7-4,66,58,53,58,55,53,99,93,75,30.35,30.28,2,0,5,0.00
2013-7-5,79,73,66,62,60,57,79,65,53,30.24,30.17,4,1,9,0.04
2013-7-6,84,71,58,64,59,55,99,70,41,30.19,30.08,4,1,8,0.00
2013-7-7,86,68,53,65,60,53,99,79,45,30.16,30.08,5,1,8,0.00
2013-7-8,86,65,54,65,58,54,99,82,47,30.31,30.15,4,1,8,0.00
2013-7-10,71,62,55,60,57,54,94,83,68,30.29,30.19,3,1,9,0.00
2013-7-11,57,56,55,54,53,52,92,90,88,30.24,30.20,0,0,2,0.00
2013-7-12,71,66,60,58,55,52,83,69,51,30.28,30.24,2,1,9,0.00
2013-7-13,81,69,53,57,50,43,89,56,32,30.42,30.32,4,2,11,0.00
2013-7-14,84,71,50,59,52,49,98,57,35,30.35,30.20,5,2,11,0.00
2013-7-23,91,77,59,64,58,48,99,59,27,30.29,30.18,4,2,9,0.00
2013-7-24,88,73,53,61,58,53,99,65,37,30.28,30.20,5,2,9,0.00
2013-7-25,88,68,52,62,57,52,99,73,36,30.32,30.25,4,1,9,0.00
2013-7-26,86,65,52,61,56,51,99,80,40,30.38,30.29,5,1,8,0.00
2013-7-27,84,72,58,60,57,54,93,62,39,30.37,30.21,4,1,10,0.00
2013-7-28,79,62,53,60,56,52,99,82,51,30.25,30.15,4,1,10,0.00
2013-7-30,84,71,57,63,60,55,95,69,48,30.35,30.28,5,1,8,0.00
2013-7-31,80,64,53,66,60,53,99,87,62,30.34,30.19,4,0,6,0.00
2013-8-1,79,68,60,61,58,57,91,73,55,30.26,30.23,3,1,10,0.00
2013-8-6,89,75,59,65,59,56,99,62,38,30.23,30.13,6,2,11,0.00
2013-8-7,59,55,53,56,54,53,99,97,89,30.19,30.16,1,0,2,0.00
2013-8-10,83,73,61,67,64,59,96,76,60,30.22,30.15,5,1,10,0.15
2013-8-11,80,62,57,62,58,57,99,89,54,30.29,30.21,3,0,8,0.00
2013-8-12,59,59,58,58,58,57,97,96,94,30.26,30.23,0,0,2,0.00
2013-8-13,61,58,56,57,56,55,96,93,89,30.16,30.15,0,0,2,0.00
2013-8-14,88,64,53,64,59,48,99,88,29,30.16,30.12,4,0,10,0.24
2013-8-15,63,63,60,63,62,60,99,99,99,30.20,30.13,1,0,4,0.01
2013-8-16,91,72,60,68,62,55,99,77,34,30.22,30.14,4,1,8,0.00
2013-8-17,68,60,56,64,59,56,99,96,87,30.27,30.21,2,0,6,0.00
2013-8-24,79,66,54,65,60,54,99,83,54,30.14,30.07,5,1,11,0.09
2013-8-25,54,54,54,54,54,54,99,99,99,30.14,30.13,1,0,2,0.00
2013-8-27,88,71,60,63,61,60,99,76,43,30.06,30.01,3,0,7,0.08
2013-8-28,60,60,60,60,60,60,99,99,99,30.05,30.05,0,0,2,0.00
2013-8-29,76,67,63,72,66,63,99,97,84,30.17,30.08,4,1,12,0.84
2013-8-30,63,61,60,62,61,60,99,99,99,30.25,30.20,3,1,10,0.00
2013-9-1,90,77,59,66,62,56,96,64,38,30.09,30.00,4,1,9,0.00
2013-9-2,88,66,57,67,58,56,99,81,41,30.15,30.07,4,0,11,0.00
2013-9-3,59,58,57,58,57,57,99,98,96,30.17,30.15,1,0,2,0.00
2013-9-4,62,62,62,62,62,61,99,99,99,30.27,30.27,0,0,2,0.09
2013-9-5,70,64,59,67,63,59,99,97,86,30.25,30.14,2,0,6,0.12
2013-9-6,73,65,61,69,64,61,99,96,81,30.31,30.16,3,0,9,0.60
2013-9-7,62,61,60,61,61,60,99,99,99,30.30,30.29,2,0,7,0.00
2013-9-8,60,60,58,60,59,58,99,99,99,30.26,30.25,0,0,1,0.00
2013-9-9,83,68,54,66,61,54,99,80,55,30.28,30.19,5,1,8,0.00
2013-9-10,83,68,51,67,60,51,99,78,54,30.21,30.09,4,1,11,0.00
2013-9-11,61,60,58,60,58,57,99,96,91,30.14,30.11,1,0,3,0.00
2013-9-15,63,61,60,62,61,60,99,99,99,30.02,29.97,2,0,7,0.25
2013-9-16,72,61,57,65,60,57,99,97,77,30.14,29.99,4,1,13,0.15
2013-9-18,57,54,51,56,53,51,99,99,96,30.28,30.26,1,0,2,0.00
2013-9-19,86,61,48,64,52,45,99,80,28,30.26,29.97,2,0,8,0.00
2013-9-20,58,56,54,53,52,51,91,85,81,29.96,29.94,0,0,0,0.00
2013-9-22,66,56,54,60,55,54,99,98,83,29.92,29.75,4,1,11,0.00
2013-9-23,70,56,51,58,54,50,99,93,64,30.18,29.94,4,1,11,0.00
2013-9-24,51,50,50,50,50,50,99,99,98,30.08,30.07,1,0,5,0.00
2013-9-25,69,54,46,57,50,46,99,89,60,30.24,30.07,4,0,14,0.00
2013-9-26,66,50,41,56,48,41,99,92,66,30.33,30.24,2,0,8,0.00
2013-9-27,53,51,47,53,50,47,99,99,99,30.32,30.22,2,0,9,0.00
2013-9-28,57,53,50,57,53,50,99,99,99,29.92,29.69,1,0,3,2.74
2013-9-29,53,52,50,52,51,50,99,99,99,29.96,29.87,0,0,2,1.61
2013-9-30,64,53,47,55,49,46,99,90,65,30.34,29.97,0,0,4,0.17
2013-10-1,63,52,45,53,48,45,99,89,59,30.54,30.33,0,0,2,0.17
2013-10-2,51,51,51,50,50,50,97,96,96,30.55,30.54,0,0,2,0.00
2013-10-6,59,56,53,53,52,50,99,85,73,30.34,30.32,0,0,3,0.07
2013-10-7,68,56,45,54,51,45,99,85,54,30.45,30.29,0,0,3,0.02
2013-10-8,65,48,40,56,46,40,99,93,67,30.53,30.41,0,0,2,0.06
2013-10-9,64,47,36,52,44,36,99,90,58,30.58,30.41,0,0,2,0.01
2013-10-10,62,50,41,54,48,41,99,94,68,30.53,30.39,0,0,2,0.01
2013-10-11,49,48,48,49,48,48,99,99,99,30.55,30.52,0,0,0,0.01
2013-10-12,60,50,42,52,48,42,99,93,68,30.66,30.52,0,0,2,0.00
2013-10-13,64,47,40,51,44,40,99,90,61,30.82,30.66,0,0,2,0.01
2013-10-14,64,47,38,53,44,38,99,91,62,30.88,30.81,0,0,2,0.01
2013-10-15,68,48,38,55,46,38,99,92,61,30.84,30.63,0,0,2,0.00
2013-10-16,64,50,41,54,48,41,99,93,70,30.65,30.59,0,0,2,0.01
2013-10-17,63,49,42,53,47,42,99,95,70,30.73,30.65,0,0,2,0.00
2013-10-18,44,42,39,44,42,39,99,99,99,30.70,30.68,0,0,0,0.00
2013-10-20,47,46,46,47,46,46,99,99,99,30.66,30.65,0,0,2,0.00
2013-11-14,44,43,42,44,43,42,99,99,99,30.51,30.48,0,0,0,0.09
2013-11-15,48,44,42,48,44,42,99,99,99,30.49,29.75,0,0,3,0.00
2013-11-16,49,40,33,45,39,32,100,95,81,30.19,29.78,0,0,2,0.00
2013-11-17,57,46,39,51,45,39,100,96,78,30.31,30.19,0,0,2,0.02
2013-11-18,51,48,45,50,48,44,99,99,99,30.30,29.95,0,0,3,1.44
2013-11-19,51,38,37,50,37,27,100,94,67,30.50,29.95,0,0,2,0.17
2013-11-20,46,35,29,36,31,27,100,86,60,30.94,30.50,0,0,3,0.02
2013-11-21,47,34,28,35,31,28,100,91,56,31.10,30.94,0,0,2,0.00
2013-11-22,49,37,32,38,33,29,100,88,63,31.08,30.89,0,0,2,0.00
2013-11-23,56,40,31,45,37,30,100,89,62,30.89,29.58,4,0,58,0.01
2013-11-24,54,39,33,48,38,33,99,97,74,30.68,30.60,0,0,2,0.00
2013-11-25,50,37,30,45,36,30,99,97,82,30.74,29.58,0,0,1,0.00
2013-11-26,48,41,30,46,39,30,99,93,78,30.71,30.51,0,0,2,0.01
2013-11-27,58,42,36,47,40,36,100,95,64,30.51,30.41,0,0,1,0.02
2013-11-28,52,38,33,52,38,32,100,99,90,30.60,30.46,0,0,1,0.00
2013-11-29,47,42,38,46,42,38,99,99,99,30.71,30.60,0,0,1,0.01
2013-11-30,50,48,44,50,47,44,100,99,99,30.73,30.54,0,0,2,0.00
2013-12-1,54,48,46,54,44,34,99,85,63,30.47,30.15,0,0,2,0.07
2013-12-2,52,38,32,39,34,26,100,86,57,30.48,30.23,0,0,3,0.00
2013-12-3,44,34,30,26,23,18,74,64,38,30.74,30.48,0,0,4,0.00
2013-12-4,43,28,24,26,24,22,100,86,50,30.78,30.72,0,0,2,0.00
2013-12-5,35,28,21,32,25,21,99,89,75,30.76,30.62,0,0,2,0.00
2013-12-6,34,28,25,23,16,8,85,61,41,30.67,30.56,0,0,4,0.02
2013-12-7,35,24,16,15,12,7,89,59,35,30.85,30.66,0,0,3,0.00
2013-12-8,37,24,15,22,18,14,96,79,49,31.00,30.84,0,0,2,0.00
2013-12-9,32,27,19,25,22,17,96,80,68,31.01,30.93,0,0,2,0.00
2013-12-10,38,31,26,34,31,25,100,97,84,30.92,30.85,0,0,1,0.00
2013-12-11,40,30,27,40,30,26,100,99,95,30.85,30.58,0,0,0,0.00
2013-12-12,42,36,28,42,35,28,99,96,77,30.59,30.45,0,0,2,0.08
2013-12-13,46,44,41,45,44,41,99,99,99,30.84,30.53,0,0,2,0.00
2013-12-14,50,46,44,47,46,43,100,97,90,30.86,30.73,0,0,4,0.01
2013-12-15,59,47,45,52,46,44,100,98,77,30.88,30.72,0,0,3,0.04
2013-12-16,59,43,37,52,42,37,100,97,75,30.92,30.71,0,0,1,0.00
2013-12-17,40,39,36,40,39,36,99,99,99,30.71,30.54,0,0,1,0.02
2013-12-18,40,37,32,40,36,31,100,99,99,30.60,30.47,0,0,2,0.04
2013-12-19,43,34,31,32,29,21,99,81,51,30.78,30.60,0,0,4,0.00
2013-12-20,41,36,31,38,36,28,100,97,87,30.63,30.11,0,0,3,0.09
2013-12-21,42,41,39,42,41,38,99,99,99,30.60,30.28,0,0,1,0.07
2013-12-22,48,44,41,48,44,41,99,99,99,30.73,30.57,0,0,2,0.02
2013-12-23,61,48,34,54,45,34,100,90,50,30.95,30.55,0,0,3,0.01
2013-12-24,48,39,34,45,38,34,100,97,82,31.06,30.95,0,0,2,0.01